VIR93A EGKK-MMUN

Flight info

Callsign VIR93A
Flight time N/A
Altitude 32000
Route NOVMA L620 SAM N19 ADKIK DCT MOPAT DCT MALOT/M085F320 DCT 54N020W 54N030W 54N040W 53N050W DCT RIKAL/N0499F320 DCT TOPPS DCT ENE DCT MERIT DCT RIDGY DCT COLIN DCT ARGAL DCT FLO DCT ESENT DCT JAYJA DCT KNOST DCT CIGAR M219 NAVVL L465 SHARQ UM463 WALKY UB879 NOSAT NOSAT1B
Aircraft B744/H-SDE3FGHIM1M2RWXY/LB1

Departure

Time N/A
Airport London Gatwick Airport (EGKK)

Arrival

Time 2026-05-04 16:30
Airport Cancún International Airport (MMUN)
Time Latitude Longitude Altitude Speed Heading
2026-05-04 07:54 53.39453 -16.82401 32112 ft 493 kts 292°
2026-05-04 07:55 53.41692 -16.93260 32112 ft 493 kts 292°
2026-05-04 07:55 53.43925 -17.04147 32112 ft 494 kts 292°
2026-05-04 07:56 53.46145 -17.15033 32112 ft 493 kts 291°
2026-05-04 07:56 53.48357 -17.25939 32112 ft 493 kts 291°
2026-05-04 07:57 53.50543 -17.36775 32112 ft 493 kts 291°
2026-05-04 07:57 53.52731 -17.47686 32112 ft 493 kts 291°
2026-05-04 07:58 53.54905 -17.58583 32112 ft 492 kts 291°
2026-05-04 07:58 53.57076 -17.69531 32112 ft 492 kts 290°
2026-05-04 07:59 53.59244 -17.80524 32113 ft 492 kts 290°
2026-05-04 07:59 53.61374 -17.91391 32113 ft 492 kts 290°
2026-05-04 08:00 53.63508 -18.02325 32114 ft 492 kts 290°
2026-05-04 08:02 53.71959 -18.46279 32111 ft 492 kts 289°
2026-05-04 08:02 53.74047 -18.57297 32111 ft 493 kts 289°
2026-05-04 08:03 53.76124 -18.68324 32111 ft 493 kts 289°
2026-05-04 08:03 53.78194 -18.79376 32111 ft 493 kts 289°
2026-05-04 08:04 53.80254 -18.90443 32112 ft 493 kts 289°
2026-05-04 08:04 53.82303 -19.01512 32112 ft 493 kts 288°
2026-05-04 08:05 53.84340 -19.12584 32111 ft 493 kts 288°
2026-05-04 08:05 53.86368 -19.23676 32111 ft 493 kts 288°
2026-05-04 08:06 53.88373 -19.34702 32116 ft 493 kts 288°
2026-05-04 08:06 53.90376 -19.45786 32116 ft 493 kts 287°
2026-05-04 08:08 53.98308 -19.90295 32116 ft 492 kts 287°
2026-05-04 08:10 54.01401 -20.36386 32124 ft 492 kts 273°
2026-05-04 08:11 54.01592 -20.42188 32124 ft 491 kts 273°
2026-05-04 08:11 54.02170 -20.59571 32123 ft 491 kts 274°
2026-05-04 08:12 54.02670 -20.71144 32125 ft 490 kts 274°
2026-05-04 08:12 54.03116 -20.82624 32125 ft 489 kts 273°
2026-05-04 08:13 54.03527 -20.94169 32125 ft 489 kts 273°
2026-05-04 08:13 54.03918 -21.05718 32125 ft 488 kts 273°
2026-05-04 08:14 54.04292 -21.17240 32125 ft 488 kts 273°
2026-05-04 08:16 54.05614 -21.61303 32125 ft 486 kts 272°
2026-05-04 08:16 54.05931 -21.72770 32126 ft 485 kts 272°
2026-05-04 08:17 54.06237 -21.84223 32126 ft 485 kts 272°
2026-05-04 08:17 54.06532 -21.95690 32126 ft 484 kts 272°
2026-05-04 08:19 54.07600 -22.41424 32127 ft 484 kts 272°
2026-05-04 08:20 54.07840 -22.52877 32127 ft 484 kts 272°
2026-05-04 08:20 54.08068 -22.64251 32132 ft 483 kts 272°
2026-05-04 08:21 54.08286 -22.75677 32137 ft 484 kts 272°
2026-05-04 08:21 54.08494 -22.87128 32137 ft 483 kts 272°
2026-05-04 08:22 54.08690 -22.98563 32138 ft 483 kts 272°
2026-05-04 08:24 54.09367 -23.44243 32139 ft 482 kts 271°
2026-05-04 08:24 54.09509 -23.55657 32139 ft 481 kts 271°
2026-05-04 08:25 54.09640 -23.67051 32131 ft 481 kts 271°
2026-05-04 08:25 54.09760 -23.78441 32131 ft 481 kts 271°
2026-05-04 08:27 54.10133 -24.23983 32162 ft 480 kts 270°
2026-05-04 08:28 54.10199 -24.35354 32162 ft 480 kts 270°
2026-05-04 08:28 54.10255 -24.46736 32163 ft 480 kts 270°
2026-05-04 08:29 54.10300 -24.58131 32163 ft 480 kts 270°
2026-05-04 08:31 54.10372 -25.03601 32164 ft 479 kts 269°
2026-05-04 08:33 54.10273 -25.48937 32166 ft 478 kts 269°
2026-05-04 08:35 54.10005 -25.94205 32207 ft 478 kts 269°
2026-05-04 08:35 54.09911 -26.05511 32220 ft 474 kts 269°
2026-05-04 08:37 54.09507 -26.44520 32220 ft 471 kts 270°
2026-05-04 08:38 54.09368 -26.55691 32220 ft 471 kts 270°
2026-05-04 08:38 54.09219 -26.66847 32224 ft 471 kts 269°
2026-05-04 08:40 54.08519 -27.11459 32372 ft 468 kts 269°
2026-05-04 08:40 54.08421 -27.16985 32597 ft 464 kts 269°
2026-05-04 08:41 54.08321 -27.22462 32821 ft 462 kts 269°
2026-05-04 08:41 54.08219 -27.27941 33046 ft 462 kts 269°
2026-05-04 08:41 54.08114 -27.33407 33271 ft 463 kts 269°
2026-05-04 08:41 54.08007 -27.38893 33496 ft 463 kts 269°
2026-05-04 08:42 54.07897 -27.44352 33720 ft 462 kts 268°
2026-05-04 08:42 54.07785 -27.49824 33946 ft 461 kts 268°
2026-05-04 08:42 54.07671 -27.55278 34170 ft 461 kts 268°
2026-05-04 08:43 54.07435 -27.66188 34238 ft 461 kts 268°
2026-05-04 08:43 54.07189 -27.77114 34238 ft 461 kts 268°
2026-05-04 08:44 54.06933 -27.88013 34238 ft 461 kts 268°
2026-05-04 08:46 54.05809 -28.31736 34237 ft 464 kts 267°
2026-05-04 08:46 54.05502 -28.42707 34238 ft 464 kts 267°
2026-05-04 08:47 54.05185 -28.53665 34237 ft 464 kts 266°
2026-05-04 08:47 54.04858 -28.64626 34237 ft 464 kts 266°
2026-05-04 08:48 54.04522 -28.75577 34237 ft 464 kts 266°
2026-05-04 08:48 54.04173 -28.86606 34237 ft 463 kts 266°
2026-05-04 08:49 54.03816 -28.97552 34237 ft 463 kts 266°
2026-05-04 08:50 54.02495 -29.35727 34237 ft 462 kts 266°
2026-05-04 08:51 54.02107 -29.46629 34237 ft 462 kts 267°
2026-05-04 08:51 54.01753 -29.57560 34237 ft 462 kts 266°
2026-05-04 08:52 54.01319 -29.68472 34237 ft 462 kts 266°
2026-05-04 08:52 54.00866 -29.79369 34237 ft 463 kts 265°
2026-05-04 08:54 54.00849 -30.23140 34237 ft 468 kts 272°
2026-05-04 08:55 54.01273 -30.34184 34236 ft 467 kts 272°
2026-05-04 08:55 54.01668 -30.45200 34236 ft 467 kts 272°
2026-05-04 09:01 54.05554 -31.59159 34094 ft 468 kts 271°
2026-05-04 09:01 54.05862 -31.70225 34093 ft 468 kts 271°
2026-05-04 09:02 54.06159 -31.81283 34092 ft 468 kts 271°
2026-05-04 09:02 54.06448 -31.92367 34091 ft 468 kts 271°
2026-05-04 09:03 54.06725 -32.03416 34096 ft 465 kts 271°
2026-05-04 09:03 54.06857 -32.08828 34092 ft 453 kts 271°
2026-05-04 09:03 54.06983 -32.14202 34090 ft 450 kts 271°
2026-05-04 09:04 54.07230 -32.24772 34089 ft 446 kts 272°
2026-05-04 09:04 54.07468 -32.35328 34089 ft 447 kts 272°
2026-05-04 09:05 54.07697 -32.45945 34088 ft 449 kts 272°
2026-05-04 09:05 54.07916 -32.56557 34091 ft 448 kts 271°
2026-05-04 09:06 54.08125 -32.67086 34087 ft 448 kts 271°
2026-05-04 09:08 54.08877 -33.10059 34083 ft 454 kts 270°
2026-05-04 09:08 54.09042 -33.20827 34082 ft 455 kts 270°
2026-05-04 09:09 54.09197 -33.31540 34082 ft 455 kts 270°
2026-05-04 09:09 54.09342 -33.42320 34081 ft 455 kts 270°
2026-05-04 09:10 54.09479 -33.53109 34080 ft 456 kts 270°
2026-05-04 09:10 54.09605 -33.63911 34079 ft 456 kts 270°
2026-05-04 09:11 54.09722 -33.74697 34079 ft 456 kts 270°
2026-05-04 09:11 54.09830 -33.85521 34078 ft 456 kts 270°
2026-05-04 09:12 54.09927 -33.96325 34076 ft 456 kts 270°
2026-05-04 09:14 54.10221 -34.39348 34073 ft 454 kts 269°
2026-05-04 09:14 54.10270 -34.50108 34072 ft 454 kts 269°
2026-05-04 09:15 54.10310 -34.60880 34072 ft 455 kts 269°
2026-05-04 09:15 54.10340 -34.71612 34071 ft 456 kts 269°
2026-05-04 09:17 54.10357 -35.19694 34067 ft 452 kts 269°
2026-05-04 09:18 54.10335 -35.30420 34066 ft 453 kts 269°
2026-05-04 09:18 54.10303 -35.41155 34065 ft 453 kts 269°
2026-05-04 09:19 54.10261 -35.51900 34064 ft 453 kts 269°
2026-05-04 09:19 54.10210 -35.62638 34063 ft 454 kts 269°
2026-05-04 09:20 54.10150 -35.73335 34061 ft 454 kts 269°
2026-05-04 09:20 54.10080 -35.84101 34062 ft 455 kts 269°
2026-05-04 09:21 54.10000 -35.94871 34062 ft 455 kts 269°
2026-05-04 09:21 54.09912 -36.05621 34060 ft 447 kts 268°
2026-05-04 09:22 54.09815 -36.16192 34061 ft 447 kts 268°
2026-05-04 09:22 54.09707 -36.26787 34060 ft 448 kts 268°
2026-05-04 09:23 54.09591 -36.37415 34059 ft 449 kts 268°
2026-05-04 09:23 54.09464 -36.48068 34057 ft 449 kts 268°
2026-05-04 09:25 54.08866 -36.90690 34053 ft 452 kts 268°
2026-05-04 09:26 54.08691 -37.01415 34052 ft 453 kts 268°
2026-05-04 09:26 54.08507 -37.12142 34052 ft 454 kts 268°
2026-05-04 09:27 54.08313 -37.22910 34050 ft 455 kts 268°
2026-05-04 09:27 54.08109 -37.33671 34050 ft 455 kts 268°
2026-05-04 09:28 54.07895 -37.44466 34049 ft 456 kts 268°
2026-05-04 09:28 54.07671 -37.55264 34047 ft 457 kts 268°
2026-05-04 09:29 54.07438 -37.66070 34046 ft 457 kts 268°
2026-05-04 09:29 54.07194 -37.76882 34045 ft 458 kts 268°
2026-05-04 09:30 54.06940 -37.87716 34044 ft 458 kts 268°
2026-05-04 09:30 54.06677 -37.98548 34043 ft 458 kts 268°
2026-05-04 09:31 54.06403 -38.09403 34042 ft 459 kts 268°
2026-05-04 09:31 54.06119 -38.20258 34040 ft 459 kts 268°
2026-05-04 09:32 54.05826 -38.31123 34039 ft 459 kts 268°
2026-05-04 09:34 54.04552 -38.74613 34034 ft 461 kts 267°
2026-05-04 09:34 54.04210 -38.85444 34033 ft 462 kts 267°
2026-05-04 09:35 54.03854 -38.96415 34032 ft 462 kts 267°
2026-05-04 09:35 54.03489 -39.07345 34031 ft 463 kts 267°
2026-05-04 09:37 54.02617 -39.32338 34027 ft 464 kts 267°
2026-05-04 09:38 54.02289 -39.41395 34027 ft 465 kts 267°
2026-05-04 09:38 54.01935 -39.52387 34025 ft 466 kts 268°
2026-05-04 09:39 54.01526 -39.63375 34024 ft 466 kts 267°
2026-05-04 09:39 54.01076 -39.74349 34023 ft 466 kts 266°
2026-05-04 09:40 54.00615 -39.85358 34021 ft 466 kts 266°
2026-05-04 09:40 54.00153 -39.96358 34020 ft 466 kts 266°
2026-05-04 09:42 53.97753 -40.37121 34015 ft 448 kts 266°
2026-05-04 09:43 53.97082 -40.47631 34013 ft 447 kts 266°
2026-05-04 09:43 53.96401 -40.58131 34011 ft 449 kts 267°
2026-05-04 09:44 53.95817 -40.68747 34010 ft 452 kts 268°
2026-05-04 09:46 53.93210 -41.10649 34004 ft 444 kts 268°
2026-05-04 09:46 53.92521 -41.21041 34002 ft 442 kts 268°
2026-05-04 09:47 53.91826 -41.31391 34001 ft 441 kts 268°
2026-05-04 09:49 53.88965 -41.72593 33993 ft 439 kts 268°
2026-05-04 09:51 53.86353 -42.08486 33990 ft 439 kts 268°
2026-05-04 09:51 53.85586 -42.18741 33989 ft 438 kts 268°
2026-05-04 09:52 53.84813 -42.28962 33986 ft 437 kts 268°
2026-05-04 09:52 53.84034 -42.39152 33989 ft 436 kts 268°
2026-05-04 09:53 53.83252 -42.49255 33987 ft 434 kts 268°
2026-05-04 09:53 53.82456 -42.59426 33985 ft 432 kts 268°
2026-05-04 09:54 53.81665 -42.69437 33983 ft 430 kts 267°
2026-05-04 09:54 53.80866 -42.79428 33981 ft 428 kts 267°
2026-05-04 09:55 53.80061 -42.89386 33979 ft 425 kts 267°
2026-05-04 09:55 53.79243 -42.99392 33978 ft 423 kts 267°
2026-05-04 09:56 53.78433 -43.09212 33975 ft 420 kts 266°
2026-05-04 09:56 53.77620 -43.18958 33974 ft 418 kts 266°
2026-05-04 09:57 53.76803 -43.28659 33971 ft 415 kts 266°
2026-05-04 09:57 53.75983 -43.38292 33969 ft 413 kts 266°
2026-05-04 09:58 53.75158 -43.47894 33967 ft 412 kts 266°
2026-05-04 09:58 53.74329 -43.57456 33965 ft 410 kts 266°
2026-05-04 10:00 53.70958 -43.95408 33956 ft 408 kts 265°
2026-05-04 10:04 53.64756 -44.61838 33941 ft 412 kts 264°
2026-05-04 10:04 53.63833 -44.71390 33938 ft 413 kts 264°
2026-05-04 10:05 53.62899 -44.80962 33936 ft 415 kts 264°
2026-05-04 10:05 53.61954 -44.90568 33936 ft 416 kts 263°
2026-05-04 10:06 53.61000 -45.00185 33935 ft 417 kts 263°
2026-05-04 10:06 53.60034 -45.09842 33932 ft 418 kts 263°
2026-05-04 10:08 53.56578 -45.43722 33923 ft 422 kts 262°
2026-05-04 10:08 53.55564 -45.53485 33829 ft 424 kts 262°
2026-05-04 10:09 53.54538 -45.63279 33782 ft 425 kts 262°
2026-05-04 10:09 53.53504 -45.73063 33778 ft 426 kts 262°
2026-05-04 10:10 53.52460 -45.82868 33776 ft 426 kts 261°
2026-05-04 10:10 53.51409 -45.92653 33773 ft 426 kts 261°
2026-05-04 10:11 53.50348 -46.02455 33768 ft 427 kts 261°
2026-05-04 10:11 53.49276 -46.12281 33768 ft 429 kts 261°
2026-05-04 10:12 53.48191 -46.22140 33765 ft 429 kts 261°
2026-05-04 10:12 53.47100 -46.31980 33762 ft 429 kts 260°
2026-05-04 10:13 53.45999 -46.41831 33760 ft 430 kts 260°
2026-05-04 10:13 53.44890 -46.51671 33758 ft 430 kts 260°
2026-05-04 10:14 53.43770 -46.61538 33755 ft 430 kts 260°
2026-05-04 10:16 53.39200 -47.01021 33745 ft 433 kts 259°
2026-05-04 10:16 53.38033 -47.10919 33741 ft 433 kts 259°
2026-05-04 10:17 53.36855 -47.20830 33739 ft 434 kts 258°
2026-05-04 10:19 53.32064 -47.60394 33729 ft 435 kts 258°
2026-05-04 10:19 53.30840 -47.70314 33726 ft 436 kts 258°
2026-05-04 10:20 53.29607 -47.80243 33723 ft 436 kts 258°
2026-05-04 10:20 53.28368 -47.90149 33718 ft 436 kts 257°
2026-05-04 10:21 53.27118 -48.00066 33715 ft 436 kts 257°
2026-05-04 10:21 53.25858 -48.10006 33713 ft 439 kts 256°
2026-05-04 10:22 53.23937 -48.24990 33708 ft 440 kts 256°
2026-05-04 10:23 53.22647 -48.34972 33706 ft 440 kts 256°
2026-05-04 10:25 53.17409 -48.74808 33696 ft 441 kts 255°
2026-05-04 10:25 53.16074 -48.84790 33694 ft 442 kts 255°
2026-05-04 10:26 53.14946 -48.93166 33692 ft 443 kts 255°
2026-05-04 10:26 53.13588 -49.03190 33689 ft 443 kts 255°
2026-05-04 10:27 53.12223 -49.13201 33686 ft 444 kts 254°
2026-05-04 10:27 53.10855 -49.23164 33684 ft 444 kts 254°
2026-05-04 10:28 53.09470 -49.33184 33682 ft 445 kts 254°
2026-05-04 10:28 53.08070 -49.43248 33679 ft 445 kts 254°
2026-05-04 10:29 53.06706 -49.53306 33677 ft 446 kts 254°
2026-05-04 10:29 53.05307 -49.63353 33675 ft 446 kts 253°
2026-05-04 10:30 53.03862 -49.73395 33637 ft 447 kts 253°
2026-05-04 10:30 53.02408 -49.83426 33619 ft 447 kts 253°
2026-05-04 10:31 53.00949 -49.93463 33616 ft 447 kts 253°
2026-05-04 10:32 52.93381 -50.27396 33607 ft 451 kts 243°
2026-05-04 10:33 52.91003 -50.36992 33604 ft 451 kts 244°
2026-05-04 10:33 52.88620 -50.46607 33602 ft 451 kts 243°
2026-05-04 10:34 52.86261 -50.56239 33599 ft 452 kts 244°
2026-05-04 10:34 52.83953 -50.65918 33597 ft 452 kts 244°
2026-05-04 10:35 52.81604 -50.75561 33594 ft 452 kts 244°
2026-05-04 10:35 52.79232 -50.85182 33592 ft 452 kts 244°
2026-05-04 10:36 52.76849 -50.94778 33582 ft 452 kts 243°
2026-05-04 10:36 52.74451 -51.04382 33578 ft 452 kts 243°
2026-05-04 10:37 52.72043 -51.13978 33575 ft 453 kts 243°
2026-05-04 10:37 52.69629 -51.23556 33573 ft 452 kts 243°
2026-05-04 10:39 52.61111 -51.57017 33565 ft 453 kts 243°
2026-05-04 10:40 52.58661 -51.66552 33563 ft 453 kts 243°
2026-05-04 10:40 52.56202 -51.76081 33561 ft 453 kts 242°
2026-05-04 10:41 52.53734 -51.85602 33559 ft 453 kts 242°
2026-05-04 10:41 52.51273 -51.95060 33557 ft 453 kts 242°
2026-05-04 10:42 52.48786 -52.04581 33549 ft 457 kts 242°
2026-05-04 10:42 52.46253 -52.14233 33554 ft 464 kts 241°
2026-05-04 10:43 52.43684 -52.23975 33550 ft 465 kts 241°
2026-05-04 10:45 52.33394 -52.62596 33543 ft 464 kts 240°
2026-05-04 10:45 52.30769 -52.72346 33497 ft 464 kts 240°
2026-05-04 10:46 52.28168 -52.81968 33454 ft 463 kts 240°
2026-05-04 10:46 52.25559 -52.91576 33452 ft 463 kts 240°
2026-05-04 10:47 52.22944 -53.01170 33451 ft 463 kts 240°
2026-05-04 10:47 52.20320 -53.10754 33450 ft 463 kts 240°
2026-05-04 10:49 52.09751 -53.48969 33446 ft 463 kts 240°
2026-05-04 10:50 52.07088 -53.58499 33445 ft 463 kts 240°
2026-05-04 10:52 51.96336 -53.96602 33428 ft 472 kts 238°
2026-05-04 10:52 51.93558 -54.06349 33427 ft 473 kts 238°
2026-05-04 10:54 51.82478 -54.44838 33422 ft 471 kts 237°
2026-05-04 10:56 51.69477 -54.80941 33407 ft 464 kts 230°
2026-05-04 10:57 51.68010 -54.84727 33406 ft 464 kts 230°
2026-05-04 10:57 51.64784 -54.93050 33403 ft 465 kts 230°
2026-05-04 10:58 51.62090 -54.99991 33400 ft 465 kts 230°
2026-05-04 10:59 51.58727 -55.08903 33395 ft 466 kts 230°
2026-05-04 10:59 51.55329 -55.17818 33390 ft 467 kts 230°
2026-05-04 11:00 51.51904 -55.26708 33385 ft 468 kts 230°
2026-05-04 11:02 51.38065 -55.62161 33362 ft 470 kts 230°
2026-05-04 11:05 51.11695 -56.28338 33335 ft 473 kts 229°
2026-05-04 11:06 51.08138 -56.37138 33332 ft 473 kts 229°
2026-05-04 11:06 51.04571 -56.45929 33330 ft 473 kts 229°
2026-05-04 11:10 50.79422 -57.07093 33315 ft 475 kts 228°
2026-05-04 11:12 50.65449 -57.40466 33301 ft 476 kts 228°
2026-05-04 11:12 50.61778 -57.49162 33289 ft 477 kts 227°
2026-05-04 11:13 50.58098 -57.57852 33286 ft 478 kts 227°
2026-05-04 11:13 50.54400 -57.66557 33282 ft 478 kts 227°
2026-05-04 11:14 50.50696 -57.75245 33278 ft 478 kts 227°
2026-05-04 11:16 50.35791 -58.09921 33262 ft 485 kts 227°
2026-05-04 11:16 50.31995 -58.18680 33258 ft 486 kts 227°
2026-05-04 11:17 50.28201 -58.27402 33255 ft 485 kts 227°
2026-05-04 11:19 50.12969 -58.62141 33221 ft 485 kts 226°
2026-05-04 11:19 50.09139 -58.70806 33219 ft 486 kts 226°
2026-05-04 11:20 50.05302 -58.79457 33217 ft 486 kts 226°
2026-05-04 11:20 50.01454 -58.88103 33208 ft 486 kts 226°
2026-05-04 11:22 49.85963 -59.22633 33202 ft 489 kts 228°
2026-05-04 11:23 49.82034 -59.31318 33201 ft 489 kts 228°
2026-05-04 11:25 49.68295 -59.61474 33198 ft 492 kts 228°
2026-05-04 11:25 49.64343 -59.70084 33197 ft 492 kts 228°
2026-05-04 11:27 49.46474 -60.08669 33194 ft 492 kts 228°
2026-05-04 11:28 49.42484 -60.17212 33193 ft 492 kts 229°
2026-05-04 11:28 49.38483 -60.25749 33193 ft 492 kts 229°
2026-05-04 11:29 49.34474 -60.34275 33192 ft 493 kts 229°
2026-05-04 11:29 49.30461 -60.42783 33192 ft 493 kts 229°
2026-05-04 11:33 49.02183 -61.01981 33173 ft 494 kts 229°
2026-05-04 11:33 48.98097 -61.10427 33173 ft 495 kts 229°
2026-05-04 11:34 48.93981 -61.18908 33172 ft 501 kts 229°
2026-05-04 11:34 48.89848 -61.27398 33171 ft 502 kts 229°
2026-05-04 11:35 48.85683 -61.35927 33170 ft 501 kts 229°
2026-05-04 11:35 48.81519 -61.44425 33170 ft 502 kts 229°
2026-05-04 11:36 48.77347 -61.52914 33169 ft 502 kts 229°
2026-05-04 11:36 48.73164 -61.61399 33169 ft 503 kts 229°
2026-05-04 11:37 48.68973 -61.69873 33168 ft 503 kts 229°
2026-05-04 11:37 48.64768 -61.78348 33181 ft 503 kts 229°
2026-05-04 11:38 48.60564 -61.86795 33211 ft 502 kts 229°
2026-05-04 11:38 48.56356 -61.95224 33220 ft 503 kts 229°
2026-05-04 11:39 48.52137 -62.03643 33220 ft 501 kts 229°
2026-05-04 11:41 48.37420 -62.32829 33245 ft 500 kts 231°
2026-05-04 11:41 48.33200 -62.41140 33247 ft 500 kts 231°
2026-05-04 11:42 48.28973 -62.49437 33249 ft 500 kts 231°
2026-05-04 11:42 48.24742 -62.57717 33251 ft 500 kts 231°
2026-05-04 11:43 48.20504 -62.65987 33254 ft 500 kts 231°
2026-05-04 11:43 48.16282 -62.74200 33257 ft 500 kts 230°
2026-05-04 11:44 48.12009 -62.82486 33260 ft 500 kts 230°
2026-05-04 11:44 48.07774 -62.90673 33264 ft 500 kts 230°
2026-05-04 11:45 48.03502 -62.98909 33268 ft 500 kts 230°
2026-05-04 11:45 47.99226 -63.07124 33272 ft 500 kts 230°
2026-05-04 11:46 47.94980 -63.15253 33281 ft 498 kts 231°
2026-05-04 11:46 47.90723 -63.23389 33289 ft 496 kts 231°
2026-05-04 11:47 47.86456 -63.31516 33295 ft 498 kts 231°
2026-05-04 11:47 47.82188 -63.39621 33344 ft 497 kts 231°
2026-05-04 11:48 47.77919 -63.47705 33399 ft 498 kts 231°
2026-05-04 11:48 47.73629 -63.55802 33404 ft 498 kts 231°
2026-05-04 11:49 47.69348 -63.63858 33410 ft 497 kts 231°
2026-05-04 11:49 47.65051 -63.71920 33419 ft 498 kts 231°
2026-05-04 11:50 47.60744 -63.79978 33422 ft 498 kts 231°
2026-05-04 11:50 47.56438 -63.88010 33425 ft 498 kts 231°
2026-05-04 11:51 47.52125 -63.96031 33428 ft 498 kts 231°
2026-05-04 11:51 47.47807 -64.04040 33432 ft 497 kts 231°
2026-05-04 11:52 47.43499 -64.12004 33435 ft 496 kts 231°
2026-05-04 11:52 47.39186 -64.19955 33397 ft 495 kts 231°
2026-05-04 11:53 47.34889 -64.27854 33401 ft 494 kts 231°
2026-05-04 11:53 47.30574 -64.35764 33418 ft 493 kts 231°
2026-05-04 11:55 47.13377 -64.67060 33497 ft 491 kts 231°
2026-05-04 11:56 47.09045 -64.74887 33531 ft 490 kts 231°
2026-05-04 11:56 47.04771 -64.82587 33540 ft 490 kts 231°
2026-05-04 11:57 47.00436 -64.90376 33543 ft 489 kts 231°
2026-05-04 11:57 46.96157 -64.98042 33545 ft 489 kts 231°
2026-05-04 11:58 46.91843 -65.05750 33548 ft 489 kts 231°
2026-05-04 11:58 46.87528 -65.13437 33551 ft 489 kts 231°
2026-05-04 11:59 46.83207 -65.21113 33554 ft 489 kts 231°
2026-05-04 11:59 46.79626 -65.27460 33556 ft 489 kts 231°
2026-05-04 12:00 46.75277 -65.35147 33560 ft 489 kts 231°
2026-05-04 12:00 46.70947 -65.42779 33683 ft 489 kts 231°
2026-05-04 12:00 46.68778 -65.46595 33909 ft 488 kts 231°
2026-05-04 12:01 46.66606 -65.50410 34135 ft 488 kts 231°
2026-05-04 12:01 46.64447 -65.54196 34359 ft 488 kts 231°
2026-05-04 12:02 46.51453 -65.76880 35594 ft 486 kts 230°
2026-05-04 12:03 46.47118 -65.84407 35621 ft 484 kts 230°
2026-05-04 12:03 46.42818 -65.91852 35661 ft 479 kts 230°
2026-05-04 12:04 46.38539 -65.99240 35676 ft 479 kts 230°
2026-05-04 12:04 46.34278 -66.06577 35680 ft 473 kts 231°
2026-05-04 12:05 46.30048 -66.13844 35684 ft 471 kts 231°
2026-05-04 12:05 46.25829 -66.21069 35688 ft 468 kts 231°
2026-05-04 12:06 46.21639 -66.28230 35691 ft 467 kts 231°
2026-05-04 12:06 46.17446 -66.35377 35695 ft 467 kts 231°
2026-05-04 12:07 46.13235 -66.42534 35696 ft 467 kts 231°
2026-05-04 12:07 46.09021 -66.49680 35699 ft 468 kts 231°
2026-05-04 12:08 46.04799 -66.56820 35701 ft 468 kts 231°
2026-05-04 12:08 46.00601 -66.63901 35701 ft 468 kts 231°
2026-05-04 12:09 45.96384 -66.70996 35701 ft 465 kts 231°
2026-05-04 12:09 45.92181 -66.78048 35702 ft 464 kts 231°
2026-05-04 12:10 45.87971 -66.85096 35703 ft 465 kts 231°
2026-05-04 12:10 45.83756 -66.92133 35705 ft 465 kts 231°
2026-05-04 12:11 45.79540 -66.99155 35709 ft 465 kts 231°
2026-05-04 12:11 45.75318 -67.06168 35712 ft 465 kts 231°
2026-05-04 12:12 45.71100 -67.13158 35715 ft 464 kts 231°
2026-05-04 12:12 45.66874 -67.20144 35719 ft 464 kts 231°
2026-05-04 12:14 45.49952 -67.48020 35730 ft 465 kts 230°
2026-05-04 12:15 45.45686 -67.54964 35734 ft 465 kts 230°
2026-05-04 12:15 45.41447 -67.61840 35738 ft 465 kts 230°
2026-05-04 12:16 45.37184 -67.68745 35742 ft 465 kts 230°
2026-05-04 12:16 45.32916 -67.75643 35747 ft 465 kts 230°
2026-05-04 12:17 45.28582 -67.82450 35774 ft 464 kts 229°
2026-05-04 12:17 45.24232 -67.89254 35790 ft 465 kts 229°
2026-05-04 12:18 45.19886 -67.96040 35794 ft 465 kts 229°
2026-05-04 12:18 45.15534 -68.02819 35798 ft 464 kts 229°
2026-05-04 12:19 45.11204 -68.09551 35802 ft 461 kts 230°
2026-05-04 12:19 45.06932 -68.16300 35806 ft 460 kts 230°
2026-05-04 12:20 45.02664 -68.22993 35811 ft 461 kts 230°
2026-05-04 12:20 44.98367 -68.29685 35816 ft 460 kts 230°
2026-05-04 12:21 44.94028 -68.36416 35817 ft 460 kts 230°
2026-05-04 12:21 44.89718 -68.43079 35827 ft 459 kts 230°
2026-05-04 12:22 44.85438 -68.49678 35830 ft 459 kts 230°
2026-05-04 12:22 44.81127 -68.56309 35831 ft 459 kts 230°
2026-05-04 12:23 44.76813 -68.62929 35833 ft 459 kts 230°
2026-05-04 12:23 44.72501 -68.69529 35832 ft 458 kts 230°
2026-05-04 12:24 44.68183 -68.76123 35832 ft 458 kts 230°
2026-05-04 12:24 44.63869 -68.82695 35833 ft 458 kts 229°
2026-05-04 12:25 44.59543 -68.89269 35834 ft 458 kts 229°
2026-05-04 12:25 44.55217 -68.95829 35836 ft 458 kts 229°
2026-05-04 12:26 44.50889 -69.02376 35837 ft 458 kts 229°
2026-05-04 12:26 44.46556 -69.08915 35837 ft 458 kts 229°
2026-05-04 12:27 44.42221 -69.15442 35835 ft 458 kts 229°
2026-05-04 12:27 44.37885 -69.21955 35836 ft 458 kts 229°
2026-05-04 12:28 44.33548 -69.28455 35837 ft 458 kts 229°
2026-05-04 12:28 44.29201 -69.34954 35840 ft 458 kts 229°
2026-05-04 12:29 44.24849 -69.41446 35842 ft 457 kts 229°
2026-05-04 12:29 44.20499 -69.47920 35849 ft 457 kts 229°
2026-05-04 12:30 44.16142 -69.54389 35851 ft 457 kts 229°
2026-05-04 12:30 44.11787 -69.60841 35853 ft 459 kts 229°
2026-05-04 12:31 44.07379 -69.67355 35857 ft 465 kts 229°
2026-05-04 12:31 44.02935 -69.73908 35857 ft 465 kts 229°
2026-05-04 12:32 43.96287 -69.83680 35859 ft 462 kts 229°
2026-05-04 12:33 43.91889 -69.90128 35860 ft 459 kts 229°
2026-05-04 12:33 43.87497 -69.96553 35861 ft 460 kts 229°
2026-05-04 12:34 43.83114 -70.02949 35863 ft 460 kts 229°
2026-05-04 12:34 43.78708 -70.09364 35866 ft 460 kts 229°
2026-05-04 12:35 43.74301 -70.15766 35872 ft 460 kts 229°
2026-05-04 12:35 43.69882 -70.22171 35877 ft 459 kts 229°
2026-05-04 12:36 43.65472 -70.28548 35879 ft 459 kts 229°
2026-05-04 12:36 43.61085 -70.34939 35880 ft 459 kts 229°
2026-05-04 12:37 43.56672 -70.41289 35880 ft 458 kts 229°
2026-05-04 12:37 43.52254 -70.47613 35881 ft 458 kts 229°
2026-05-04 12:38 43.47839 -70.53921 35884 ft 458 kts 229°
2026-05-04 12:38 43.43412 -70.60237 35888 ft 457 kts 229°
2026-05-04 12:39 43.38890 -70.66379 35890 ft 458 kts 226°
2026-05-04 12:39 43.34195 -70.72302 35890 ft 458 kts 226°
2026-05-04 12:40 43.29497 -70.78260 35890 ft 458 kts 226°
2026-05-04 12:40 43.24827 -70.84203 35890 ft 458 kts 226°
2026-05-04 12:41 43.20152 -70.90152 35890 ft 458 kts 226°
2026-05-04 12:41 43.15492 -70.96117 35890 ft 458 kts 227°
2026-05-04 12:42 43.10859 -71.02084 35891 ft 458 kts 226°
2026-05-04 12:42 43.06185 -71.08055 35892 ft 458 kts 226°
2026-05-04 12:43 43.01976 -71.13408 35898 ft 457 kts 226°
2026-05-04 12:43 42.97211 -71.19451 35891 ft 456 kts 226°
2026-05-04 12:44 42.92557 -71.25339 35890 ft 456 kts 226°
2026-05-04 12:44 42.87891 -71.31226 35893 ft 457 kts 226°
2026-05-04 12:45 42.83229 -71.37097 35895 ft 457 kts 226°
2026-05-04 12:45 42.79318 -71.42011 35901 ft 456 kts 226°
2026-05-04 12:46 42.74677 -71.47832 35908 ft 457 kts 226°
2026-05-04 12:46 42.70002 -71.53683 35910 ft 456 kts 226°
2026-05-04 12:47 42.65327 -71.59521 35914 ft 456 kts 226°
2026-05-04 12:47 42.60650 -71.65350 35920 ft 456 kts 226°
2026-05-04 12:48 42.55968 -71.71172 35928 ft 456 kts 226°
2026-05-04 12:48 42.51286 -71.76981 35930 ft 456 kts 226°
2026-05-04 12:49 42.46598 -71.82786 35928 ft 456 kts 226°
2026-05-04 12:49 42.41909 -71.88580 35928 ft 456 kts 226°
2026-05-04 12:50 42.37216 -71.94365 35930 ft 456 kts 226°
2026-05-04 12:50 42.32526 -72.00136 35930 ft 456 kts 226°
2026-05-04 12:51 42.27857 -72.05868 35929 ft 451 kts 226°
2026-05-04 12:51 42.23220 -72.11551 35930 ft 450 kts 226°
2026-05-04 12:52 42.18574 -72.17231 35931 ft 451 kts 226°
2026-05-04 12:52 42.13920 -72.22910 35932 ft 451 kts 226°
2026-05-04 12:53 42.09264 -72.28579 35933 ft 451 kts 226°
2026-05-04 12:53 42.04608 -72.34237 35936 ft 451 kts 226°
2026-05-04 12:54 41.99937 -72.39901 35942 ft 452 kts 226°
2026-05-04 12:54 41.95261 -72.45560 35949 ft 452 kts 226°
2026-05-04 12:55 41.90592 -72.51198 35962 ft 451 kts 226°
2026-05-04 12:55 41.85918 -72.56832 35961 ft 452 kts 226°
2026-05-04 12:56 41.81242 -72.62455 35965 ft 452 kts 226°
2026-05-04 12:56 41.76566 -72.68068 35969 ft 452 kts 225°
2026-05-04 12:57 41.71878 -72.73684 35971 ft 452 kts 225°
2026-05-04 12:57 41.67224 -72.79247 35978 ft 452 kts 226°
2026-05-04 12:58 41.62533 -72.84846 35988 ft 452 kts 226°
2026-05-04 12:58 41.57855 -72.90463 35995 ft 452 kts 225°
2026-05-04 12:59 41.53156 -72.96041 35997 ft 452 kts 225°
2026-05-04 12:59 41.48473 -73.01578 36001 ft 452 kts 225°
2026-05-04 13:00 41.43762 -73.07140 36001 ft 452 kts 225°
2026-05-04 13:00 41.39054 -73.12691 36001 ft 452 kts 225°
2026-05-04 13:01 41.34293 -73.18187 36003 ft 453 kts 224°
2026-05-04 13:01 41.29483 -73.23621 36007 ft 453 kts 224°
2026-05-04 13:02 41.26471 -73.27025 36008 ft 453 kts 224°
2026-05-04 13:02 41.23405 -73.30487 36009 ft 453 kts 224°
2026-05-04 13:03 41.18599 -73.35909 36009 ft 453 kts 224°
2026-05-04 13:03 41.13789 -73.41327 36011 ft 453 kts 224°
2026-05-04 13:04 41.09003 -73.46763 36012 ft 453 kts 225°
2026-05-04 13:04 41.04244 -73.52167 36013 ft 453 kts 224°
2026-05-04 13:05 40.99419 -73.57613 36013 ft 453 kts 224°
2026-05-04 13:05 40.94639 -73.62986 36014 ft 453 kts 224°
2026-05-04 13:06 40.89833 -73.68375 36015 ft 453 kts 224°
2026-05-04 13:06 40.85011 -73.73769 36015 ft 453 kts 224°
2026-05-04 13:07 40.80193 -73.79149 36019 ft 453 kts 224°
2026-05-04 13:07 40.75394 -73.84495 36021 ft 453 kts 224°
2026-05-04 13:08 40.70553 -73.89877 36026 ft 453 kts 224°
2026-05-04 13:08 40.65736 -73.95222 36032 ft 452 kts 224°
2026-05-04 13:09 40.60927 -74.00548 36031 ft 452 kts 224°
2026-05-04 13:09 40.56145 -74.05835 36029 ft 447 kts 224°
2026-05-04 13:10 40.51383 -74.11089 36029 ft 447 kts 224°
2026-05-04 13:10 40.46611 -74.16343 36036 ft 447 kts 224°
2026-05-04 13:11 40.41840 -74.21587 36033 ft 447 kts 224°
2026-05-04 13:11 40.37064 -74.26825 36038 ft 447 kts 224°
2026-05-04 13:12 40.32288 -74.32054 36041 ft 447 kts 224°
2026-05-04 13:12 40.27552 -74.37230 36043 ft 446 kts 224°
2026-05-04 13:13 40.22749 -74.42468 36046 ft 447 kts 224°
2026-05-04 13:13 40.18003 -74.47634 36048 ft 447 kts 224°
2026-05-04 13:14 40.13220 -74.52832 36052 ft 448 kts 224°
2026-05-04 13:14 40.08425 -74.58032 36056 ft 447 kts 224°
2026-05-04 13:15 40.03634 -74.63218 36059 ft 447 kts 224°
2026-05-04 13:15 39.98842 -74.68395 36058 ft 447 kts 224°
2026-05-04 13:16 39.94045 -74.73569 36053 ft 447 kts 224°
2026-05-04 13:16 39.89243 -74.78737 36051 ft 448 kts 224°
2026-05-04 13:17 39.84432 -74.83905 36052 ft 448 kts 224°
2026-05-04 13:17 39.79619 -74.89066 36052 ft 449 kts 224°
2026-05-04 13:18 39.74797 -74.94228 36054 ft 450 kts 224°
2026-05-04 13:18 39.69962 -74.99393 36056 ft 450 kts 224°
2026-05-04 13:19 39.65113 -75.04563 36058 ft 451 kts 224°
2026-05-04 13:19 39.60262 -75.09726 36059 ft 452 kts 224°
2026-05-04 13:20 39.55400 -75.14892 36061 ft 452 kts 224°
2026-05-04 13:20 39.50534 -75.20052 36063 ft 452 kts 224°
2026-05-04 13:21 39.45665 -75.25205 36063 ft 453 kts 224°
2026-05-04 13:21 39.40782 -75.30363 36062 ft 453 kts 224°
2026-05-04 13:22 39.35899 -75.35512 36060 ft 453 kts 224°
2026-05-04 13:22 39.31005 -75.40663 36060 ft 454 kts 224°
2026-05-04 13:23 39.26116 -75.45800 36056 ft 454 kts 224°
2026-05-04 13:23 39.21217 -75.50937 36053 ft 454 kts 224°
2026-05-04 13:24 39.16334 -75.56081 36052 ft 454 kts 224°
2026-05-04 13:24 39.11438 -75.61203 36051 ft 453 kts 224°
2026-05-04 13:25 39.04070 -75.68864 36055 ft 454 kts 223°
2026-05-04 13:25 38.99203 -75.73914 36059 ft 454 kts 223°
2026-05-04 13:26 38.94294 -75.79005 36063 ft 453 kts 223°
2026-05-04 13:26 38.89414 -75.84122 36066 ft 453 kts 224°
2026-05-04 13:27 38.84564 -75.89203 36067 ft 453 kts 224°
2026-05-04 13:27 38.79684 -75.94302 36069 ft 453 kts 224°
2026-05-04 13:28 38.74810 -75.99386 36071 ft 452 kts 224°
2026-05-04 13:28 38.69929 -76.04468 36072 ft 453 kts 224°
2026-05-04 13:29 38.65047 -76.09581 36074 ft 454 kts 224°
2026-05-04 13:29 38.60162 -76.14696 36076 ft 453 kts 224°
2026-05-04 13:30 38.55279 -76.19779 36076 ft 452 kts 224°
2026-05-04 13:30 38.51220 -76.23991 36076 ft 452 kts 224°
2026-05-04 13:31 38.46380 -76.29005 36075 ft 452 kts 224°
2026-05-04 13:31 38.41453 -76.34097 36073 ft 452 kts 224°
2026-05-04 13:32 38.36567 -76.39139 36071 ft 452 kts 224°
2026-05-04 13:32 38.31695 -76.44191 36070 ft 452 kts 224°
2026-05-04 13:33 38.26810 -76.49217 36070 ft 452 kts 224°
2026-05-04 13:33 38.21913 -76.54231 36070 ft 452 kts 224°
2026-05-04 13:34 38.17013 -76.59238 36071 ft 452 kts 224°
2026-05-04 13:34 38.12118 -76.64235 36072 ft 452 kts 224°
2026-05-04 13:35 38.04337 -76.71082 36080 ft 456 kts 217°
2026-05-04 13:36 37.98920 -76.75314 36085 ft 457 kts 217°
2026-05-04 13:36 37.93536 -76.79559 36087 ft 456 kts 217°
2026-05-04 13:37 37.88158 -76.83816 36089 ft 456 kts 217°
2026-05-04 13:37 37.82788 -76.88069 36090 ft 456 kts 217°
2026-05-04 13:38 37.77459 -76.92321 36089 ft 456 kts 218°
2026-05-04 13:38 37.72059 -76.96628 36089 ft 456 kts 218°
2026-05-04 13:39 37.66688 -77.00889 36091 ft 456 kts 218°
2026-05-04 13:39 37.61355 -77.05109 36092 ft 456 kts 218°
2026-05-04 13:40 37.55970 -77.09360 36092 ft 457 kts 218°
2026-05-04 13:40 37.50587 -77.13600 36091 ft 457 kts 218°
2026-05-04 13:41 37.45202 -77.17835 36091 ft 456 kts 218°
2026-05-04 13:41 37.39817 -77.22063 36093 ft 456 kts 218°
2026-05-04 13:42 37.31731 -77.28397 36094 ft 456 kts 217°
2026-05-04 13:42 37.26342 -77.32610 36097 ft 456 kts 217°
2026-05-04 13:43 37.20957 -77.36812 36099 ft 456 kts 217°
2026-05-04 13:43 37.15565 -77.41012 36099 ft 456 kts 217°
2026-05-04 13:44 37.10173 -77.45206 36100 ft 456 kts 217°
2026-05-04 13:44 37.04780 -77.49392 36101 ft 456 kts 217°
2026-05-04 13:45 36.99391 -77.53569 36103 ft 456 kts 217°
2026-05-04 13:45 36.93997 -77.57743 36105 ft 455 kts 217°
2026-05-04 13:46 36.88614 -77.61901 36107 ft 455 kts 217°
2026-05-04 13:46 36.83234 -77.66050 36109 ft 454 kts 217°
2026-05-04 13:47 36.77854 -77.70192 36110 ft 454 kts 217°
2026-05-04 13:47 36.72481 -77.74322 36113 ft 454 kts 217°
2026-05-04 13:48 36.67105 -77.78448 36116 ft 453 kts 217°
2026-05-04 13:48 36.61735 -77.82561 36125 ft 453 kts 217°
2026-05-04 13:49 36.56362 -77.86671 36134 ft 453 kts 217°
2026-05-04 13:49 36.50987 -77.90775 36135 ft 453 kts 217°
2026-05-04 13:50 36.45623 -77.94864 36136 ft 452 kts 217°
2026-05-04 13:50 36.40303 -77.98938 36134 ft 452 kts 217°
2026-05-04 13:51 36.34921 -78.03027 36133 ft 457 kts 217°
2026-05-04 13:51 36.29471 -78.07153 36137 ft 460 kts 217°
2026-05-04 13:52 36.21306 -78.13323 36136 ft 458 kts 217°
2026-05-04 13:53 36.15870 -78.17441 36136 ft 457 kts 218°
2026-05-04 13:53 36.10514 -78.21675 36137 ft 457 kts 218°
2026-05-04 13:54 36.02473 -78.28024 36139 ft 457 kts 218°
2026-05-04 13:55 35.94422 -78.34351 36140 ft 457 kts 218°
2026-05-04 13:55 35.86381 -78.40669 36135 ft 457 kts 219°
2026-05-04 13:56 35.81025 -78.44898 36134 ft 457 kts 218°
2026-05-04 13:57 35.72966 -78.51221 36131 ft 459 kts 218°
2026-05-04 13:58 35.62176 -78.59647 36131 ft 460 kts 218°
2026-05-04 13:58 35.54061 -78.65964 36136 ft 460 kts 218°
2026-05-04 13:59 35.48651 -78.70166 36142 ft 460 kts 218°
2026-05-04 14:00 35.40564 -78.76436 36149 ft 461 kts 218°
2026-05-04 14:00 35.32411 -78.82741 36146 ft 462 kts 218°
2026-05-04 14:01 35.26973 -78.86938 36136 ft 462 kts 218°
2026-05-04 14:02 35.18807 -78.93228 36119 ft 463 kts 218°
2026-05-04 14:02 35.13363 -78.97412 36116 ft 463 kts 218°
2026-05-04 14:03 35.07906 -79.01600 36117 ft 463 kts 218°
2026-05-04 14:03 35.02447 -79.05783 36126 ft 464 kts 218°
2026-05-04 14:04 34.94225 -79.12071 36134 ft 464 kts 218°
2026-05-04 14:04 34.88752 -79.16248 36130 ft 464 kts 218°
2026-05-04 14:05 34.80555 -79.22491 36134 ft 464 kts 218°
2026-05-04 14:06 34.75054 -79.26673 36139 ft 465 kts 218°
2026-05-04 14:06 34.69564 -79.30841 36139 ft 465 kts 218°
2026-05-04 14:07 34.64073 -79.35001 36139 ft 465 kts 218°
2026-05-04 14:07 34.58608 -79.39136 36141 ft 465 kts 218°
2026-05-04 14:08 34.53083 -79.43310 36143 ft 465 kts 218°
2026-05-04 14:08 34.47594 -79.47470 36144 ft 465 kts 218°
2026-05-04 14:09 34.39378 -79.53655 36146 ft 466 kts 218°
2026-05-04 14:10 34.31112 -79.59851 36149 ft 466 kts 218°
2026-05-04 14:10 34.25601 -79.63976 36150 ft 466 kts 218°
2026-05-04 14:11 34.19969 -79.67895 36150 ft 468 kts 214°
2026-05-04 14:11 34.11239 -79.73243 36150 ft 470 kts 213°
2026-05-04 14:12 34.05423 -79.76822 36152 ft 469 kts 213°
2026-05-04 14:13 33.96707 -79.82201 36157 ft 470 kts 214°
2026-05-04 14:13 33.90855 -79.85827 36163 ft 474 kts 214°
2026-05-04 14:14 33.84992 -79.89473 36166 ft 474 kts 214°
2026-05-04 14:14 33.76203 -79.94909 36169 ft 473 kts 214°
2026-05-04 14:15 33.65472 -80.01518 36169 ft 474 kts 214°
2026-05-04 14:16 33.56688 -80.06913 36170 ft 473 kts 214°
2026-05-04 14:17 33.47899 -80.12298 36169 ft 472 kts 214°
2026-05-04 14:18 33.39116 -80.17668 36169 ft 473 kts 214°
2026-05-04 14:19 33.27435 -80.24790 36166 ft 472 kts 214°
2026-05-04 14:19 33.21550 -80.28370 36165 ft 472 kts 214°
2026-05-04 14:20 33.15698 -80.31924 36163 ft 472 kts 213°
2026-05-04 14:20 33.09890 -80.35447 36162 ft 471 kts 213°
2026-05-04 14:21 33.01129 -80.40750 36163 ft 471 kts 213°
2026-05-04 14:21 32.95283 -80.44283 36168 ft 470 kts 213°
2026-05-04 14:22 32.89444 -80.47805 36173 ft 470 kts 213°
2026-05-04 14:22 32.83576 -80.51341 36176 ft 469 kts 213°
2026-05-04 14:23 32.74889 -80.56565 36177 ft 468 kts 213°
2026-05-04 14:24 32.69074 -80.60054 36177 ft 469 kts 213°
2026-05-04 14:24 32.63252 -80.63544 36178 ft 469 kts 213°
2026-05-04 14:25 32.57433 -80.67027 36179 ft 469 kts 213°
2026-05-04 14:25 32.48730 -80.72226 36180 ft 469 kts 213°
2026-05-04 14:26 32.42907 -80.75708 36180 ft 469 kts 213°
2026-05-04 14:26 32.37084 -80.79184 36180 ft 468 kts 213°
2026-05-04 14:27 32.31262 -80.82641 36180 ft 468 kts 213°
2026-05-04 14:27 32.25436 -80.86094 36180 ft 468 kts 213°
2026-05-04 14:28 32.19618 -80.89539 36178 ft 468 kts 213°
2026-05-04 14:28 32.13809 -80.92964 36165 ft 469 kts 213°
2026-05-04 14:29 32.02066 -80.99704 36157 ft 469 kts 212°
2026-05-04 14:30 31.96201 -81.03068 36146 ft 469 kts 213°
2026-05-04 14:31 31.87393 -81.08112 36146 ft 469 kts 213°
2026-05-04 14:32 31.75675 -81.14850 36149 ft 469 kts 213°
2026-05-04 14:32 31.69814 -81.18207 36156 ft 469 kts 213°
2026-05-04 14:33 31.63989 -81.21535 36158 ft 469 kts 213°
2026-05-04 14:33 31.58111 -81.24887 36161 ft 469 kts 213°
2026-05-04 14:34 31.52236 -81.28232 36163 ft 469 kts 213°
2026-05-04 14:34 31.46369 -81.31568 36165 ft 469 kts 213°
2026-05-04 14:35 31.40493 -81.34903 36167 ft 469 kts 213°
2026-05-04 14:35 31.34619 -81.38233 36169 ft 469 kts 213°
2026-05-04 14:36 31.28754 -81.41554 36169 ft 469 kts 213°
2026-05-04 14:36 31.22878 -81.44876 36169 ft 469 kts 213°
2026-05-04 14:37 31.17001 -81.48194 36167 ft 469 kts 213°
2026-05-04 14:37 31.11140 -81.51498 36164 ft 468 kts 213°
2026-05-04 14:38 31.05263 -81.54807 36164 ft 468 kts 213°
2026-05-04 14:38 30.99390 -81.58109 36166 ft 469 kts 213°
2026-05-04 14:39 30.93516 -81.61407 36169 ft 469 kts 212°
2026-05-04 14:39 30.87638 -81.64703 36170 ft 469 kts 212°
2026-05-04 14:40 30.78820 -81.69639 36176 ft 469 kts 212°
2026-05-04 14:40 30.72932 -81.72929 36167 ft 469 kts 212°
2026-05-04 14:41 30.67046 -81.76214 36165 ft 469 kts 212°
2026-05-04 14:42 30.55266 -81.82774 36168 ft 470 kts 212°
2026-05-04 14:42 30.49381 -81.86044 36170 ft 470 kts 212°
2026-05-04 14:43 30.43485 -81.89317 36174 ft 470 kts 212°
2026-05-04 14:43 30.37586 -81.92587 36179 ft 470 kts 212°
2026-05-04 14:44 30.31682 -81.95854 36178 ft 470 kts 212°
2026-05-04 14:44 30.25782 -81.99116 36174 ft 470 kts 212°
2026-05-04 14:45 30.19875 -82.02373 36170 ft 472 kts 213°
2026-05-04 14:45 30.13983 -82.05624 36167 ft 472 kts 214°
2026-05-04 14:46 30.08018 -82.08909 36165 ft 472 kts 214°
2026-05-04 14:46 30.02124 -82.12150 36162 ft 472 kts 214°
2026-05-04 14:47 29.96196 -82.15405 36159 ft 472 kts 214°
2026-05-04 14:47 29.90269 -82.18656 36159 ft 472 kts 214°
2026-05-04 14:48 29.84353 -82.21909 36162 ft 472 kts 214°
2026-05-04 14:48 29.78377 -82.25179 36170 ft 472 kts 214°
2026-05-04 14:49 29.72490 -82.28390 36178 ft 472 kts 214°
2026-05-04 14:49 29.66557 -82.31622 36180 ft 472 kts 214°
2026-05-04 14:50 29.60591 -82.34869 36179 ft 472 kts 214°
2026-05-04 14:50 29.54868 -82.38383 36176 ft 467 kts 219°
2026-05-04 14:51 29.49316 -82.42220 36172 ft 465 kts 219°
2026-05-04 14:51 29.43773 -82.46029 36168 ft 464 kts 219°
2026-05-04 14:52 29.38212 -82.49818 36165 ft 465 kts 219°
2026-05-04 14:52 29.32612 -82.53620 36162 ft 465 kts 219°
2026-05-04 14:53 29.27095 -82.57370 36160 ft 464 kts 219°
2026-05-04 14:53 29.21550 -82.61146 36157 ft 463 kts 219°
2026-05-04 14:54 29.15997 -82.64911 36154 ft 463 kts 219°
2026-05-04 14:54 29.10454 -82.68661 36152 ft 463 kts 219°
2026-05-04 14:55 29.04900 -82.72411 36151 ft 463 kts 219°
2026-05-04 14:55 28.99351 -82.76153 36151 ft 463 kts 219°
2026-05-04 14:56 28.93798 -82.79892 36151 ft 463 kts 219°
2026-05-04 14:56 28.88243 -82.83629 36151 ft 464 kts 219°
2026-05-04 14:57 28.82690 -82.87359 36148 ft 463 kts 219°
2026-05-04 14:57 28.77133 -82.91087 36148 ft 463 kts 219°
2026-05-04 14:58 28.71579 -82.94808 36147 ft 463 kts 219°
2026-05-04 14:58 28.66960 -82.97900 36148 ft 463 kts 219°
2026-05-04 14:59 28.60501 -83.02217 36146 ft 462 kts 219°
2026-05-04 15:00 28.53083 -83.07168 36146 ft 462 kts 219°
2026-05-04 15:00 28.47526 -83.10871 36137 ft 462 kts 219°
2026-05-04 15:01 28.39202 -83.16411 36130 ft 462 kts 219°
2026-05-04 15:01 28.33684 -83.20077 36129 ft 462 kts 219°
2026-05-04 15:02 28.28134 -83.23761 36128 ft 462 kts 219°
2026-05-04 15:02 28.22583 -83.27457 36128 ft 462 kts 219°
2026-05-04 15:03 28.17026 -83.31134 36127 ft 463 kts 219°
2026-05-04 15:03 28.11467 -83.34804 36127 ft 463 kts 219°
2026-05-04 15:04 28.05903 -83.38474 36127 ft 463 kts 219°
2026-05-04 15:04 28.01002 -83.42850 36130 ft 435 kts 241°
2026-05-04 15:05 27.97902 -83.48652 36124 ft 430 kts 249°
2026-05-04 15:05 27.95437 -83.54790 36127 ft 429 kts 252°
2026-05-04 15:06 27.93168 -83.61027 36127 ft 427 kts 252°
2026-05-04 15:07 27.89762 -83.70290 36125 ft 425 kts 252°
2026-05-04 15:07 27.87481 -83.76452 36125 ft 425 kts 252°
2026-05-04 15:08 27.85220 -83.82627 36125 ft 425 kts 252°
2026-05-04 15:08 27.82953 -83.88795 36125 ft 425 kts 252°
2026-05-04 15:09 27.80673 -83.94959 36126 ft 425 kts 252°
2026-05-04 15:09 27.78389 -84.01112 36126 ft 425 kts 252°
2026-05-04 15:10 27.74952 -84.10346 36128 ft 425 kts 252°
2026-05-04 15:11 27.71504 -84.19583 36129 ft 426 kts 252°
2026-05-04 15:11 27.69200 -84.25745 36129 ft 425 kts 252°
2026-05-04 15:12 27.66898 -84.31892 36129 ft 425 kts 252°
2026-05-04 15:12 27.64591 -84.38040 36130 ft 426 kts 252°
2026-05-04 15:13 27.62295 -84.44152 36130 ft 426 kts 252°
2026-05-04 15:13 27.60000 -84.50313 36130 ft 426 kts 252°
2026-05-04 15:14 27.57683 -84.56460 36131 ft 426 kts 251°
2026-05-04 15:14 27.55354 -84.62608 36132 ft 427 kts 251°
2026-05-04 15:15 27.53021 -84.68757 36132 ft 426 kts 251°
2026-05-04 15:15 27.50535 -84.74814 36125 ft 431 kts 241°
2026-05-04 15:16 27.45837 -84.79281 36134 ft 456 kts 217°
2026-05-04 15:16 27.42996 -84.80910 36133 ft 463 kts 212°
2026-05-04 15:17 27.33850 -84.84811 36128 ft 472 kts 207°
2026-05-04 15:17 27.24560 -84.88535 36122 ft 472 kts 208°
2026-05-04 15:18 27.18386 -84.91053 36121 ft 472 kts 208°
2026-05-04 15:19 27.09142 -84.94853 36120 ft 472 kts 208°
2026-05-04 15:19 26.99889 -84.98645 36128 ft 472 kts 208°
2026-05-04 15:20 26.93721 -85.01167 36127 ft 472 kts 208°
2026-05-04 15:20 26.87542 -85.03691 36115 ft 472 kts 208°
2026-05-04 15:21 26.81400 -85.06196 36106 ft 472 kts 208°
2026-05-04 15:22 26.72142 -85.09967 36106 ft 473 kts 208°
2026-05-04 15:22 26.62878 -85.13745 35887 ft 473 kts 208°
2026-05-04 15:23 26.59768 -85.15008 35660 ft 471 kts 208°
2026-05-04 15:23 26.56692 -85.16255 35435 ft 471 kts 208°
2026-05-04 15:23 26.53607 -85.17505 35210 ft 471 kts 208°
2026-05-04 15:23 26.50530 -85.18751 34986 ft 472 kts 208°
2026-05-04 15:24 26.44338 -85.21257 34535 ft 473 kts 208°
2026-05-04 15:24 26.38069 -85.23527 34084 ft 479 kts 200°
2026-05-04 15:25 26.34760 -85.24167 33860 ft 486 kts 196°
2026-05-04 15:25 26.31382 -85.24576 33636 ft 491 kts 193°
2026-05-04 15:25 26.27961 -85.24869 33411 ft 494 kts 192°
2026-05-04 15:26 26.21091 -85.25515 32961 ft 495 kts 193°
2026-05-04 15:26 26.17663 -85.25869 32736 ft 495 kts 193°
2026-05-04 15:26 26.10842 -85.26580 32289 ft 496 kts 193°
2026-05-04 15:27 26.07359 -85.26944 32140 ft 497 kts 193°
2026-05-04 15:27 26.00471 -85.27662 32097 ft 498 kts 193°
2026-05-04 15:28 25.90043 -85.28739 32095 ft 506 kts 193°
2026-05-04 15:29 25.79565 -85.29821 32093 ft 505 kts 193°
2026-05-04 15:30 25.55081 -85.32348 32091 ft 505 kts 193°
2026-05-04 15:31 25.44592 -85.33424 32090 ft 504 kts 193°
2026-05-04 15:32 25.34304 -85.35094 32089 ft 487 kts 207°
2026-05-04 15:32 25.28188 -85.38158 32089 ft 480 kts 216°
2026-05-04 15:34 25.13867 -85.47305 32086 ft 475 kts 217°
2026-05-04 15:34 25.10837 -85.48838 32095 ft 487 kts 205°
2026-05-04 15:34 25.04008 -85.50002 32087 ft 503 kts 191°
2026-05-04 15:35 24.93403 -85.50083 32084 ft 511 kts 186°
2026-05-04 15:36 24.82768 -85.50013 32085 ft 509 kts 187°
2026-05-04 15:36 24.75685 -85.50004 32084 ft 509 kts 187°
2026-05-04 15:37 24.68600 -85.50001 32083 ft 509 kts 187°
2026-05-04 15:37 24.61527 -85.50000 32082 ft 509 kts 187°
2026-05-04 15:38 24.54457 -85.50000 32070 ft 507 kts 187°
2026-05-04 15:38 24.47387 -85.50000 32069 ft 508 kts 187°
2026-05-04 15:39 24.40321 -85.50000 32069 ft 508 kts 187°
2026-05-04 15:40 24.29729 -85.50000 32067 ft 508 kts 187°
2026-05-04 15:40 24.22711 -85.50000 32066 ft 507 kts 187°
2026-05-04 15:41 24.15620 -85.50000 32066 ft 506 kts 187°
2026-05-04 15:41 24.08578 -85.50000 32065 ft 507 kts 187°
2026-05-04 15:42 24.01549 -85.50000 32065 ft 507 kts 187°
2026-05-04 15:42 23.94493 -85.50179 32064 ft 510 kts 189°
2026-05-04 15:43 23.87417 -85.50582 32064 ft 512 kts 189°
2026-05-04 15:43 23.80278 -85.50939 32063 ft 511 kts 189°
2026-05-04 15:44 23.73179 -85.51282 32062 ft 511 kts 189°
2026-05-04 15:44 23.66089 -85.51621 32062 ft 511 kts 189°
2026-05-04 15:45 23.60161 -85.51903 32061 ft 510 kts 189°
2026-05-04 15:45 23.53061 -85.52240 32061 ft 510 kts 189°
2026-05-04 15:46 23.45983 -85.52578 32060 ft 510 kts 189°
2026-05-04 15:46 23.38899 -85.52927 32060 ft 510 kts 189°
2026-05-04 15:47 23.31789 -85.53276 32059 ft 509 kts 189°
2026-05-04 15:47 23.24761 -85.53620 32059 ft 509 kts 189°
2026-05-04 15:48 23.17654 -85.53969 32058 ft 508 kts 189°
2026-05-04 15:48 23.07099 -85.54487 32057 ft 508 kts 189°
2026-05-04 15:49 23.00050 -85.54832 32056 ft 507 kts 189°
2026-05-04 15:49 22.93000 -85.55176 32054 ft 507 kts 189°
2026-05-04 15:50 22.85955 -85.55519 32054 ft 507 kts 189°
2026-05-04 15:50 22.78918 -85.55860 32053 ft 506 kts 188°
2026-05-04 15:51 22.71886 -85.56198 32052 ft 506 kts 188°
2026-05-04 15:51 22.64845 -85.56536 32052 ft 506 kts 188°
2026-05-04 15:52 22.57807 -85.56874 32051 ft 505 kts 188°
2026-05-04 15:52 22.50822 -85.57205 32051 ft 505 kts 188°
2026-05-04 15:53 22.43810 -85.57519 32050 ft 505 kts 188°
2026-05-04 15:53 22.36769 -85.57835 32050 ft 505 kts 188°
2026-05-04 15:54 22.29752 -85.58235 31985 ft 500 kts 194°
2026-05-04 15:54 22.26463 -85.59228 31545 ft 483 kts 209°
2026-05-04 15:54 22.23630 -85.61037 30775 ft 468 kts 224°
2026-05-04 15:55 22.21244 -85.63376 29689 ft 464 kts 230°
2026-05-04 15:55 22.19017 -85.65929 28443 ft 468 kts 233°
2026-05-04 15:55 22.16946 -85.68626 27638 ft 463 kts 236°
2026-05-04 15:55 22.15033 -85.71352 27167 ft 451 kts 238°
2026-05-04 15:56 22.13199 -85.74072 26444 ft 446 kts 238°
2026-05-04 15:56 22.11386 -85.76721 25738 ft 443 kts 238°
2026-05-04 15:56 22.09550 -85.79364 25030 ft 439 kts 237°
2026-05-04 15:56 22.07698 -85.82012 24320 ft 435 kts 237°
2026-05-04 15:57 22.05874 -85.84614 23623 ft 432 kts 237°
2026-05-04 15:57 22.04070 -85.87185 22939 ft 428 kts 237°
2026-05-04 15:57 22.02328 -85.89663 22614 ft 416 kts 237°
2026-05-04 15:57 22.00603 -85.92118 22503 ft 400 kts 237°
2026-05-04 15:58 21.98954 -85.94465 22319 ft 387 kts 237°
2026-05-04 15:58 21.97350 -85.96741 22142 ft 375 kts 236°
2026-05-04 15:58 21.95647 -85.98807 22025 ft 365 kts 230°
2026-05-04 15:58 21.93767 -86.00733 21877 ft 381 kts 226°
2026-05-04 15:59 21.91768 -86.02607 21850 ft 380 kts 224°
2026-05-04 15:59 21.89744 -86.04449 21719 ft 380 kts 224°
2026-05-04 15:59 21.87740 -86.06303 21577 ft 380 kts 225°
2026-05-04 15:59 21.85751 -86.08159 21473 ft 379 kts 225°
2026-05-04 16:00 21.83761 -86.10022 21360 ft 379 kts 225°
2026-05-04 16:00 21.81748 -86.11908 21095 ft 385 kts 225°
2026-05-04 16:00 21.79746 -86.13786 20973 ft 381 kts 225°
2026-05-04 16:00 21.77740 -86.15667 20839 ft 381 kts 225°
2026-05-04 16:01 21.75744 -86.17539 20707 ft 381 kts 225°
2026-05-04 16:01 21.73750 -86.19408 20576 ft 379 kts 225°
2026-05-04 16:01 21.71769 -86.21265 20447 ft 379 kts 224°
2026-05-04 16:01 21.69800 -86.23111 20332 ft 370 kts 224°
2026-05-04 16:02 21.67891 -86.24898 20212 ft 355 kts 225°
2026-05-04 16:02 21.66074 -86.26601 20076 ft 338 kts 225°
2026-05-04 16:02 21.62585 -86.29880 19431 ft 333 kts 225°
2026-05-04 16:03 21.60860 -86.31499 19056 ft 330 kts 225°
2026-05-04 16:03 21.59111 -86.33138 18690 ft 329 kts 224°
2026-05-04 16:03 21.57416 -86.34726 18266 ft 324 kts 224°
2026-05-04 16:03 21.55718 -86.36317 17907 ft 325 kts 224°
2026-05-04 16:04 21.54024 -86.37902 17542 ft 322 kts 224°
2026-05-04 16:04 21.50466 -86.40818 16816 ft 321 kts 217°
2026-05-04 16:04 21.48599 -86.42127 16455 ft 319 kts 216°
2026-05-04 16:05 21.46738 -86.43413 16097 ft 318 kts 216°
2026-05-04 16:05 21.44893 -86.44710 15741 ft 316 kts 216°
2026-05-04 16:05 21.41250 -86.47303 15039 ft 313 kts 217°
2026-05-04 16:06 21.39447 -86.48591 14693 ft 311 kts 216°
2026-05-04 16:06 21.34683 -86.51995 13771 ft 306 kts 216°
2026-05-04 16:07 21.32322 -86.53686 13315 ft 305 kts 216°
2026-05-04 16:07 21.27073 -86.57446 12292 ft 300 kts 216°
2026-05-04 16:08 21.25337 -86.58686 11954 ft 299 kts 216°
2026-05-04 16:08 21.20173 -86.62369 10951 ft 296 kts 216°
2026-05-04 16:09 21.16884 -86.64713 10310 ft 281 kts 215°
2026-05-04 16:09 21.14735 -86.66244 9898 ft 281 kts 215°
2026-05-04 16:10 21.11627 -86.68458 9302 ft 255 kts 214°
2026-05-04 16:11 21.07650 -86.72069 8418 ft 251 kts 248°
2026-05-04 16:11 21.07430 -86.73922 8115 ft 253 kts 274°
2026-05-04 16:12 21.09898 -86.78775 7106 ft 249 kts 305°
2026-05-04 16:12 21.12940 -86.83264 6257 ft 247 kts 303°
2026-05-04 16:13 21.14823 -86.86320 5706 ft 245 kts 303°
2026-05-04 16:13 21.16701 -86.89355 5159 ft 243 kts 303°
2026-05-04 16:14 21.18571 -86.92342 4572 ft 237 kts 304°
2026-05-04 16:14 21.20324 -86.95151 4000 ft 221 kts 304°
2026-05-04 16:15 21.22841 -86.99191 3152 ft 205 kts 304°
2026-05-04 16:16 21.24312 -87.01556 3049 ft 186 kts 305°
2026-05-04 16:16 21.26472 -87.05014 2996 ft 185 kts 305°
2026-05-04 16:17 21.27902 -87.07307 2997 ft 185 kts 305°
2026-05-04 16:18 21.29589 -87.10988 2962 ft 184 kts 281°
2026-05-04 16:18 21.29704 -87.12348 2594 ft 184 kts 274°
2026-05-04 16:19 21.29596 -87.16333 1983 ft 175 kts 249°
2026-05-04 16:19 21.27609 -87.17451 2002 ft 171 kts 187°
2026-05-04 16:20 21.25932 -87.20269 2004 ft 174 kts 263°
2026-05-04 16:20 21.24287 -87.21627 1961 ft 172 kts 167°
2026-05-04 16:21 21.22271 -87.18787 2051 ft 156 kts 118°
2026-05-04 16:22 21.21257 -87.16766 1991 ft 152 kts 118°
2026-05-04 16:22 21.19758 -87.13753 1997 ft 153 kts 118°
2026-05-04 16:23 21.18081 -87.10833 1997 ft 153 kts 121°
2026-05-04 16:24 21.15738 -87.07027 1996 ft 153 kts 122°
2026-05-04 16:25 21.14553 -87.05127 1901 ft 152 kts 122°
2026-05-04 16:26 21.12261 -87.01458 1674 ft 148 kts 122°
2026-05-04 16:26 21.10542 -86.98708 1518 ft 148 kts 122°
2026-05-04 16:27 21.09397 -86.96877 1413 ft 148 kts 123°
2026-05-04 16:28 21.07690 -86.94146 1171 ft 147 kts 123°
2026-05-04 16:28 21.05995 -86.91425 576 ft 146 kts 122°
2026-05-04 16:29 21.03809 -86.87932 34 ft 104 kts 122°
2026-05-04 16:30 21.03274 -86.87068 33 ft 37 kts 123°
2026-05-04 16:31 21.02949 -86.86553 33 ft 40 kts 122°
2026-05-04 16:31 21.02997 -86.86336 33 ft 18 kts 300°
2026-05-04 16:32 21.03184 -86.86659 33 ft 16 kts 307°
2026-05-04 16:33 21.03307 -86.86836 33 ft 14 kts 304°
2026-05-04 16:33 21.03408 -86.86998 33 ft 12 kts 304°
2026-05-04 16:34 21.03497 -86.87140 33 ft 11 kts 304°
2026-05-04 16:34 21.03537 -86.87203 33 ft 10 kts 304°
2026-05-04 16:35 21.03645 -86.87375 33 ft 9 kts 304°
2026-05-04 16:35 21.03734 -86.87521 33 ft 7 kts 302°
2026-05-04 16:36 21.03760 -86.87565 33 ft 7 kts 302°
2026-05-04 16:36 21.03816 -86.87632 33 ft 6 kts 343°
2026-05-04 16:37 21.03874 -86.87637 33 ft 0 kts 358°
2026-05-04 16:37 21.03876 -86.87637 33 ft 2 kts 358°
2026-05-04 16:38 21.03892 -86.87638 33 ft 0 kts 359°